AirNav   Air Wisconsin pilot careers
 
 432 users online  

F22 Perry Municipal Airport
Perry, Oklahoma, USA

GOING TO PERRY?


FAA INFORMATION EFFECTIVE 11 OCTOBER 2018

Location

FAA Identifier: F22
Lat/Long: 36-23-08.2000N / 097-16-38.0000W
36-23.136667N / 097-16.633333W
36.3856111 / -97.2772222
(estimated)
Elevation: 1002.5 ft. / 305.6 m (surveyed)
Variation: 06E (1995)
From city: 5 miles N of PERRY, OK
Time zone: UTC -5 (UTC -6 during Standard Time)
Zip code: 73077

Airport Operations

Airport use: Open to the public
Activation date: 08/1943
Control tower: no
ARTCC: KANSAS CITY CENTER
FSS: MC ALESTER FLIGHT SERVICE STATION
NOTAMs facility: MLC (NOTAM-D service available)
Attendance: 0800 - 1700
CLSD CHRISTMAS DAY.
Wind indicator: lighted
Segmented circle: yes
Lights: ACTVT MIRL RY 17/35 AND REIL RWY 17 & RWY 35 - CTAF.
Beacon: white-green (lighted land airport)
Operates sunset to sunrise.

Airport Communications

CTAF/UNICOM: 122.8
WX ASOS at SWO (16 nm SE): 135.725 (405-743-8150)
  • APCH/DEP SERVICE PROVIDED BY KANSAS CITY ARTCC ON FREQS 127.8/319.1 (PONCA CITY RCAG).

Nearby radio navigation aids

VOR radial/distance  VOR name  Freq  Var
SWOr309/13.5STILLWATER VOR/DME108.4007E
PERr189/22.4PIONEER VORTAC113.2006E
ODGr080/24.7WOODRING VOR/DME109.0008E
ENDr080/31.1VANCE VORTAC115.4005E

 
NDB name  Hdg/Dist  Freq  Var  ID
BLAKI309/12.825505ESW ... .--
CUSHING316/38.524205ECUH -.-. ..- ....

Airport Services

Fuel available: 100LL JET-A
Parking: tiedowns
Airframe service: MINOR
Powerplant service: MINOR

Runway Information

Runway 17/35

Dimensions: 5103 x 75 ft. / 1555 x 23 m
Surface: asphalt, in good condition
Weight bearing capacity: 
Single wheel: 75.0
Double wheel: 130.0
Runway edge lights: medium intensity
Gradient: SOUTH.
RUNWAY 17  RUNWAY 35
Latitude: 36-23.557095N36-22.716153N
Longitude: 097-16.635762W097-16.630862W
Elevation: 974.0 ft.1002.4 ft.
Gradient: 0.6% UP0.6%
Traffic pattern: leftleft
Runway heading: 174 magnetic, 180 true354 magnetic, 360 true
Markings: nonprecision, in good conditionnonprecision, in good condition
Visual slope indicator: 2-light PAPI on left (3.00 degrees glide path)2-light PAPI on left (3.00 degrees glide path)
Runway end identifier lights: yesyes
Touchdown point: yes, no lightsyes, no lights
Obstructions: 27 ft. trees, 1100 ft. from runway, 33:1 slope to clearnone

Airport Ownership and Management from official FAA records

Ownership: Publicly-owned
Owner: CITY OF PERRY
CITY HALL, PO BOX 798
PERRY, OK 73077
Phone 580-336-4241
Manager: DOYLE CRUMM
15500 CR 110
PERRY, OK 73077
Phone 580-336-4001

Airport Operational Statistics

Aircraft based on the field: 28
Single engine airplanes: 23
Jet airplanes: 1
Helicopters: 2
Ultralights: 2
    
Aircraft operations: avg 82/day *
40% local general aviation
33% military
27% transient general aviation
* for 12-month period ending 09 May 2016

Additional Remarks

ULTRALIGHT ACTIVITY ON & INVOF ARPT.
HEAVY MILITARY JET TFC DALGT.

Instrument Procedures

NOTE: All procedures below are presented as PDF files. If you need a reader for these files, you should download the free Adobe Reader.

NOT FOR NAVIGATION. Please procure official charts for flight.
FAA instrument procedures published for use from 11 October 2018 at 0901Z to 8 November 2018 at 0900Z.

 
IAPs - Instrument Approach Procedures
RNAV (GPS) RWY 17 **CHANGED**   download (234KB)
RNAV (GPS) RWY 35 **CHANGED**   download (225KB)
VOR RWY 17 **CHANGED**   download (183KB)
NOTE: Special Take-Off Minimums/Departure Procedures apply   download (131KB)

Other nearby airports with instrument procedures:

KSWO - Stillwater Regional Airport (16 nm SE)
KBKN - Blackwell-Tonkawa Municipal Airport (22 nm N)
KPNC - Ponca City Regional Airport (22 nm N)
KWDG - Enid Woodring Regional Airport (25 nm W)
KEND - Vance Air Force Base (31 nm W)
 
Loc | Ops | Rwys | IFR | FBO | Links
Com | Nav | Svcs | Stats | Notes


 
Area around F22 (Perry Municipal Airport)
 
Road maps at: MapQuest Bing Google
 
Aerial photo
WARNING: Photo may not be current or correct
Aerial photo of F22 (Perry Municipal Airport)
Do you have a better or more recent aerial photo of Perry Municipal Airport that you would like to share? If so, please send us your photo.

 
Sectional chart

 
Airport diagram
CAUTION: Diagram may not be current
Diagram of F22 (Perry Municipal Airport)
 
Airport distance calculator
Flying to Perry Municipal Airport? Find the distance to fly.

From to F22

Sunrise and sunset
Times for 15-Oct-2018
 Local
(UTC-5)
 Zulu
(UTC)
Morning civil twilight07:1112:11
Sunrise07:3712:37
Sunset18:5323:53
Evening civil twilight19:1800:18

Current date and time
Zulu (UTC)  15-Oct-2018 09:49:09
Local (UTC-5)  15-Oct-2018 04:49:09
 
METAR
KSWO 
16nm SE 
150853Z AUTO 36010G19KT 10SM OVC021 03/00 A3032 RMK AO2 SLP270 60000 T00280000 53007 $
KBKN 
22nm N 
150935Z AUTO 34015G20KT 10SM BKN018 OVC022 02/01 A3037 RMK AO2
KPNC 
23nm N 
150853Z AUTO 36014KT 10SM OVC019 02/M01 A3033 RMK AO2 SLP275 T00221011 53005
KWDG 
24nm W 
150935Z AUTO 36013G19KT 10SM SCT020 SCT041 01/00 A3033 RMK AO2
KEND 
31nm W 
150911Z AUTO 35017G20KT 10SM BKN015 01/00 A3033 RMK AO2 CIG 014 RWY35C SLP282 VISNO RWY35C $
TAF
KPNC 
23nm N 
150520Z 1506/1606 35017G24KT P6SM VCSH OVC015 FM151100 36013G20KT P6SM SCT025 BKN080 FM152000 36011KT P6SM SCT120
NOTAMs
Click for the latest NOTAMs
NOTAMs are issued by the DoD/FAA and will open in a separate window not controlled by AirNav.

 

 
 

FBO, Fuel Providers, and Aircraft Ground Support

  
 Business Name 
 
 Contact 
 
 Services / Description 
 
Fuel Prices
 
Comments
  
 Perry Municipal Airport
580-336-4001
580-370-2259
Airport management, Aviation fuel, Aircraft parking (ramp or tiedown), Hangars, Hangar leasing / sales, Passenger terminal and lounge, Aircraft maintenance, Catering, ...
More info and photos of Perry Municipal Airport
Phillips 66
100LL Jet A
FS $4.50 $3.70 
 Updated 26-Sep-2018
 
   write
FS=Full service
Update Fuel Prices
 

Would you like to see your business listed on this page?

 If your business provides an interesting product or service to pilots, flight crews, aircraft, or users of the Perry Municipal Airport, you should consider listing it here.  To start the listing process, click on the button below
 
Add a business
 

Other Pages about Perry Municipal Airport

Update a link
 
Copyright © AirNav, LLC. All rights reserved. Privacy Policy  Contact